Franklin, NC

6:47 AM EDT on June 25, 2017 (GMT -0400)
Franklin

Weather History for K1A5 - December, 2006

Change the Weather History Date:

Saturday, December 30, 2006

  Actual Average (KTOC) Record (KTOC)
Temperature  
Mean Temperature 44 °F -  
Max Temperature 55 °F 50 °F 63 °F (2015)
Min Temperature 33 °F 33 °F 37 °F (2016)
Degree Days  
Heating Degree Days 21    
Moisture  
Dew Point 43 °F    
Average Humidity 86    
Maximum Humidity 94    
Minimum Humidity 72    
Precipitation  
Precipitation 0.03 in - - ()
Sea Level Pressure  
Sea Level Pressure 30.42 in    
Wind  
Wind Speed 0 mph (WSW)    
Max Wind Speed 5 mph    
Max Gust Speed -    
Visibility 6 miles    
Events      
Averages and records for this station are not official NWS values.
T = Trace of Precipitation, MM = Missing Value Source: NWS Daily Summary

Daily Weather History Graph

Daily Weather History Graph

Search for Another Location

Airport or City:

Trip Planner

Search our weather history database for the weather conditions in past years. The results will help you decide how hot, cold, wet, or windy it might be!

Date:

Astronomy

Dec. 30, 2006 Rise Set
Actual Time 7:41 AM EST 5:30 PM EST
Civil Twilight 7:13 AM EST 5:58 PM EST
Nautical Twilight 6:41 AM EST 6:30 PM EST
Astronomical Twilight 6:11 AM EST 7:01 PM EST
Moon 1:58 PM EST (12/30) 3:41 AM EST (12/30)
Length of Visible Light 10h 45m
Length of Day
9h 48m
Waxing Gibbous, 83% of the Moon is Illuminated
Dec 30
Waxing Gibbous
Jan 3
Full
Jan 11
Last Quarter
Jan 18
New
Jan 25
First Quarter

Hourly Weather History & Observations

Time (EST) Temp. Dew Point Humidity Pressure Visibility Wind Dir Wind Speed Gust Speed Precip Events Conditions
12:00 AM 33.8 °F 32.0 °F 93% 30.47 in 5.0 mi Calm Calm - N/A   Overcast
12:20 AM 35.6 °F 32.0 °F 87% 30.47 in 7.0 mi Calm Calm - N/A   Overcast
12:40 AM 35.6 °F 33.8 °F 93% 30.47 in 7.0 mi Calm Calm - N/A   Overcast
1:00 AM 37.4 °F 33.8 °F 87% 30.46 in 7.0 mi Calm Calm - N/A   Overcast
1:20 AM 37.4 °F 33.8 °F 87% 30.45 in 7.0 mi Calm Calm - N/A   Overcast
1:40 AM 37.4 °F 35.6 °F 93% 30.45 in 5.0 mi Calm Calm - N/A   Overcast
2:00 AM 37.4 °F 35.6 °F 93% 30.44 in 5.0 mi Calm Calm - N/A   Overcast
2:20 AM 37.4 °F 35.6 °F 93% 30.44 in 7.0 mi Calm Calm - N/A   Overcast
2:40 AM 39.2 °F 35.6 °F 87% 30.44 in 7.0 mi Calm Calm - N/A   Overcast
3:00 AM 39.2 °F 35.6 °F 87% 30.44 in 7.0 mi Calm Calm - N/A   Overcast
3:20 AM 39.2 °F 35.6 °F 87% 30.44 in 7.0 mi Calm Calm - N/A   Overcast
4:00 AM 41.0 °F 37.4 °F 87% 30.44 in 7.0 mi Calm Calm - N/A   Overcast
4:20 AM 41.0 °F 37.4 °F 87% 30.44 in 7.0 mi Calm Calm - N/A   Overcast
4:40 AM 41.0 °F 37.4 °F 87% 30.45 in 7.0 mi Calm Calm - N/A   Overcast
5:00 AM 41.0 °F 37.4 °F 87% 30.44 in 7.0 mi Calm Calm - N/A   Overcast
5:20 AM 41.0 °F 37.4 °F 87% 30.44 in 7.0 mi Calm Calm - N/A   Overcast
5:40 AM 42.8 °F 37.4 °F 81% 30.44 in 7.0 mi Calm Calm - N/A   Overcast
6:00 AM 42.8 °F 37.4 °F 81% 30.44 in 7.0 mi Calm Calm - N/A   Overcast
6:20 AM 42.8 °F 37.4 °F 81% 30.44 in 7.0 mi Calm Calm - N/A   Overcast
6:40 AM 42.8 °F 37.4 °F 81% 30.43 in 7.0 mi Calm Calm - N/A   Overcast
7:00 AM 42.8 °F 37.4 °F 81% 30.43 in 7.0 mi Calm Calm - N/A   Overcast
7:20 AM 42.8 °F 37.4 °F 81% 30.44 in 7.0 mi Calm Calm - N/A   Overcast
7:40 AM 42.8 °F 37.4 °F 81% 30.44 in 7.0 mi Calm Calm - N/A   Overcast
8:00 AM 42.8 °F 39.2 °F 87% 30.44 in 7.0 mi Calm Calm - N/A   Overcast
8:20 AM 42.8 °F 39.2 °F 87% 30.44 in 7.0 mi Calm Calm - N/A   Overcast
8:40 AM 42.8 °F 39.2 °F 87% 30.44 in 7.0 mi Calm Calm - N/A   Overcast
9:00 AM 44.6 °F 39.2 °F 81% 30.46 in 10.0 mi Calm Calm - N/A   Overcast
9:20 AM 44.6 °F 39.2 °F 81% 30.46 in 10.0 mi Calm Calm - N/A   Overcast
9:40 AM 44.6 °F 41.0 °F 87% 30.47 in 10.0 mi Calm Calm - N/A   Overcast
10:00 AM 46.4 °F 41.0 °F 81% 30.46 in 10.0 mi Calm Calm - N/A   Overcast
10:20 AM 46.4 °F 41.0 °F 81% 30.45 in 10.0 mi Calm Calm - N/A   Overcast
10:40 AM 46.4 °F 41.0 °F 81% 30.45 in 10.0 mi Calm Calm - N/A   Overcast
11:00 AM 48.2 °F 42.8 °F 82% 30.45 in 10.0 mi Calm Calm - N/A   Overcast
11:20 AM 50.0 °F 42.8 °F 76% 30.46 in 10.0 mi WSW 3.5 mph - N/A   Overcast
12:00 PM 51.8 °F 44.6 °F 76% 30.43 in 10.0 mi East 4.6 mph - N/A   Overcast
12:20 PM 51.8 °F 44.6 °F 76% 30.42 in 10.0 mi Calm Calm - N/A   Overcast
1:00 PM 53.6 °F 44.6 °F 72% 30.41 in 10.0 mi Calm Calm - N/A   Overcast
1:20 PM 53.6 °F 44.6 °F 72% 30.39 in 10.0 mi Calm Calm - N/A   Overcast
1:40 PM 53.6 °F 46.4 °F 77% 30.37 in 10.0 mi West 3.5 mph - N/A   Overcast
2:00 PM 55.4 °F 46.4 °F 72% 30.37 in 10.0 mi West 3.5 mph - N/A   Overcast
2:20 PM 55.4 °F 46.4 °F 72% 30.37 in 10.0 mi WSW 3.5 mph - N/A   Overcast
2:40 PM 55.4 °F 48.2 °F 77% 30.37 in 10.0 mi WSW 4.6 mph - N/A   Overcast
3:00 PM 55.4 °F 50.0 °F 82% 30.37 in 4.0 mi Calm Calm - N/A   Haze
3:20 PM 55.4 °F 50.0 °F 82% 30.37 in 5.0 mi Calm Calm - N/A   Haze
3:40 PM 53.6 °F 50.0 °F 88% 30.37 in 4.0 mi Calm Calm - N/A   Haze
4:00 PM 53.6 °F 50.0 °F 88% 30.38 in 3.0 mi Calm Calm - N/A   Overcast
4:20 PM 53.6 °F 50.0 °F 88% 30.38 in 2.0 mi Calm Calm - N/A   Overcast
5:00 PM 53.6 °F 50.0 °F 88% 30.37 in 3.0 mi Calm Calm - N/A   Overcast
5:20 PM 53.6 °F 50.0 °F 88% 30.37 in 2.5 mi Calm Calm - N/A   Drizzle
5:40 PM 53.6 °F 50.0 °F 88% 30.37 in 1.8 mi Calm Calm - N/A   Drizzle
6:00 PM 51.8 °F 50.0 °F 94% 30.37 in 1.2 mi Calm Calm - N/A   Light Drizzle
6:20 PM 51.8 °F 50.0 °F 94% 30.37 in 1.0 mi Calm Calm - 0.01 in   Overcast
6:40 PM 51.8 °F 50.0 °F 94% 30.37 in 1.2 mi Calm Calm - 0.01 in   Overcast
7:00 PM 51.8 °F 50.0 °F 94% 30.37 in 1.0 mi Calm Calm - N/A   Overcast
7:20 PM 51.8 °F 50.0 °F 94% 30.37 in 0.8 mi Calm Calm - N/A   Drizzle
8:00 PM 51.8 °F 50.0 °F 94% 30.37 in 1.5 mi Calm Calm - N/A   Light Drizzle
8:20 PM 51.8 °F 50.0 °F 94% 30.36 in 0.8 mi Calm Calm - N/A   Overcast
8:40 PM 51.8 °F 50.0 °F 94% 30.36 in 0.8 mi Calm Calm - N/A   Overcast
9:00 PM 51.8 °F 50.0 °F 94% 30.37 in 1.0 mi Calm Calm - N/A   Light Drizzle
9:20 PM 51.8 °F 50.0 °F 94% 30.37 in 1.2 mi Calm Calm - 0.01 in   Drizzle
9:40 PM 51.8 °F 50.0 °F 94% 30.37 in 1.2 mi Calm Calm - 0.01 in   Heavy Drizzle
10:00 PM 51.8 °F 50.0 °F 94% 30.36 in 0.5 mi Calm Calm - 0.01 in   Drizzle
10:20 PM 51.8 °F 50.0 °F 94% 30.36 in 0.8 mi Calm Calm - 0.01 in   Light Drizzle
10:40 PM 51.8 °F 50.0 °F 94% 30.35 in 0.8 mi Calm Calm - 0.01 in   Overcast
11:00 PM 51.8 °F 50.0 °F 94% 30.35 in 0.5 mi Calm Calm - N/A   Light Drizzle
11:20 PM 51.8 °F 50.0 °F 94% 30.35 in 0.5 mi Calm Calm - 0.01 in Rain Heavy Rain
11:40 PM 51.8 °F 50.0 °F 94% 30.34 in 0.5 mi Calm Calm - 0.01 in Fog Fog